Theta_e
291 290 289 287 288 287 287 287 286 284 284 283 282 282 281 281 281 280 280 279 279 279
290 289 288 286 286 286 286 286 284 284 283 282 282 281 281 281 280 280 280 279 279 278
288 289 288 285 285 285 285 285 283 283 283 282 281 281 281 280 280 280 279 279 278 278
287 288 286 285 285 286 285 285 283 284 283 282 281 281 281 280 279 279 278 278 278 277
287 285 285 286 286 285 285 285 284 284 283 282 282 281 281 280 279 278 277 277 277 276
284 283 286 286 285 284 285 284 284 283 282 282 282 281 281 280 279 278 278 277 277 276
284 285 286 286 285 284 285 283 283 283 282 282 281 281 280 279 278 278 277 277 277 276
285 284 284 285 285 283 283 283 283 282 282 281 280 280 279 279 278 277 276 276 276 275
286 283 283 284 283 282 282 282 282 281 281 279 280 284 284 280 278 277 275 274 275 275
284 284 283 283 282 282 281 282 281 281 280 279 280 284 285 284 278 276 276 275 274 274
282 283 282 281 281 281 281 280 280 280 280 279 279 284 286 284 278 277 276 275 274 274
280 280 280 280 280 280 280 279 280 280 279 279 278 284 286 283 277 276 275 275 275 275
277 276 278 278 278 279 280 279 279 278 279 278 277 283 286 282 276 274 274 275 276 277
278 275 276 277 278 278 278 278 277 276 277 277 277 280 286 283 276 275 274 274 274 275
Wind_Speed
13 10 11 11 9 11 12 13 15 16 14 14 14 12 11 8 8 8 7 8 6 4
12 12 13 12 11 11 10 10 12 15 14 14 13 14 13 9 11 10 9 8 7 4
12 13 11 10 15 15 13 14 15 16 15 14 14 14 14 10 10 11 8 7 9 5
11 12 9 10 10 12 11 15 17 19 18 18 17 16 15 14 14 14 11 9 10 9
8 8 10 13 14 12 13 12 13 15 17 17 18 18 18 17 15 16 15 13 12 11
8 8 14 13 12 13 14 14 14 15 17 18 19 19 19 18 16 16 15 15 14 12
10 14 14 13 12 13 14 14 15 15 15 16 16 17 17 17 16 15 13 13 13 13
11 10 9 10 10 10 13 13 14 14 13 13 14 13 17 17 16 16 14 13 13 13
14 7 10 10 10 11 13 14 14 15 17 16 13 26 30 22 16 16 16 15 13 11
14 13 11 10 10 13 14 12 14 15 16 19 17 29 32 31 16 17 16 16 14 11
16 15 9 7 10 10 10 13 12 13 14 15 15 29 30 30 16 16 17 17 17 16
13 14 10 7 7 8 8 10 12 10 13 15 12 28 29 27 14 14 14 13 15 15
10 9 10 8 6 4 5 8 8 9 11 12 11 26 29 24 10 12 11 11 12 21
10 8 7 5 3 4 6 4 7 8 7 9 12 19 32 32 12 12 12 12 11 10
Wind_Direction
214 200 198 183 186 187 189 194 181 185 186 187 178 175 176 177 177 174 181 179 173 165
203 206 198 179 176 180 182 176 174 184 182 181 181 179 176 179 179 177 182 184 174 164
207 206 203 183 182 183 178 172 169 178 184 182 183 182 182 178 179 178 181 177 174 162
212 208 185 194 201 192 185 183 179 179 180 184 183 186 188 186 178 184 176 172 172 176
225 200 202 207 198 190 188 188 188 185 182 183 188 185 188 187 183 184 181 177 171 175
224 216 221 218 207 188 186 185 189 187 188 187 188 189 192 188 185 188 184 178 177 171
220 220 218 215 205 195 195 186 190 195 194 193 190 193 190 187 182 184 181 175 174 168
251 236 223 217 208 191 192 197 190 187 194 187 193 192 187 188 181 177 171 172 172 174
293 249 229 222 205 191 198 198 185 191 189 187 195 197 193 184 178 177 174 174 175 170
307 282 252 231 204 204 196 192 200 199 196 194 199 198 194 189 180 175 178 174 169 166
331 311 277 230 224 217 192 195 196 202 207 209 190 201 197 189 181 177 175 173 171 172
331 319 296 264 246 235 211 195 202 196 199 206 193 201 194 184 183 176 170 169 171 170
318 313 297 282 266 251 238 232 202 196 199 195 183 198 193 179 175 172 163 163 169 173
312 299 286 280 274 234 213 217 220 181 190 187 184 198 190 181 181 170 165 170 170 180